Regional Weather Roundup
Issued by NWS

Home | Current Version | Previous Version | Text Only | Print | Product List | Glossary Off
Versions: 1 2 3 4 5 6 7 8 9 10 11 12 13 14 15 16 17 18 19 20 21 22 23 24 25 26 27 28 29 30 31 32 33 34 35 36 37 38 39 40 41 42 43 44 45 46 47 48 49 50

000
ASUS43 KMKX 131359
RWRWI

WISCONSIN REGIONAL WEATHER ROUNDUP
NATIONAL WEATHER SERVICE MILWAUKEE/SULLIVAN WI
800 AM CST SAT FEB 13 2016

NOTE: "FAIR" INDICATES FEW OR NO CLOUDS BELOW 12,000 FEET WITH NO
SIGNIFICANT WEATHER AND/OR OBSTRUCTIONS TO VISIBILITY.

WIZ001-002-006>008-014>016-023>028-131500-
NORTHWEST WISCONSIN

CITY           SKY/WX    TMP DP  RH WIND       PRES   REMARKS
SUPERIOR ARPT  CLOUDY   -14 -20  73 W5        30.64R WCI -26
ASHLAND        CLOUDY    -9 -13  83 SW9       30.59R WCI -26
HAYWARD        CLOUDY   -18 -24  74 CALM      30.56R
SIREN          CLOUDY   -17 -24  71 CALM      30.61R
CUMBERLAND     PTCLDY   -15 -22  70 NW5       30.56R WCI -27
RICE LAKE      PTCLDY   -13 -19  74 W3        30.59S
CHETEK         PTCLDY   -14 -19  79 MISG      30.59R
LADYSMITH      CLOUDY   -15 -21  75 CALM      30.56R
EAU CLAIRE     CLOUDY   -10 -18  67 W6        30.62R WCI -23
MENOMONIE      CLOUDY    -9 -19  62 W3        30.62S
NEW RICHMOND   CLOUDY   -12 -18  75 W3        30.62R
OSCEOLA        CLOUDY   -10 -16  75 CALM      30.67R
$$

WIZ003>005-009-010-017-018-131500-
NORTH CENTRAL WISCONSIN

CITY           SKY/WX    TMP DP  RH WIND       PRES   REMARKS
MANITOWISH WTR CLOUDY    -8 -13  81 W9        30.43R WCI -26
ARBOR VITAE    CLOUDY    -9 -14  78 CALM      30.43R
WOODRUFF       CLOUDY    -9 -14  78 CALM      30.43R
RHINELANDER    CLOUDY   -11 -17  75 W7        30.43R WCI -26
EAGLE RIVER    CLOUDY    -9 -15  73 W6        30.40R WCI -22
LAND O LAKES   LGT SNOW  -6 -10  81 CALM      30.38F
PHILLIPS       PTCLDY   -17 -21  81 CALM      30.48R
TOMAHAWK       CLOUDY   -13 -17  80 W5        30.47R WCI -25
MEDFORD        CLOUDY   -13 -19  75 W7        30.49R WCI -29
MERRILL        CLOUDY   -12 -17  77 W6        30.50R WCI -25
$$

WIZ029-030-035-036-043>047-131500-
CENTRAL WISCONSIN

CITY           SKY/WX    TMP DP  RH WIND       PRES   REMARKS
WAUSAU         CLOUDY    -9 -16  71 NW8       30.51R WCI -25
MOSINEE        CLEAR     -9 -17  70 NW7       30.52R WCI -24
MARSHFIELD     CLOUDY    -9 -19  61 NW13      30.52R WCI -29
STEVENS POINT  CLOUDY   -10 -18  68 NW5       30.54R WCI -22
WAUPACA        CLOUDY    -4 -14  61 W8        30.55R WCI -19
WAUTOMA        NOT AVBL
WISC RAPIDS    CLOUDY    -8 -18  61 NW7       30.57R WCI -23
CAMP DOUGLAS   NOT AVBL
$$

WIZ011>013-019>022-031-037>040-048>050-131500-
NORTHEAST WISCONSIN

CITY           SKY/WX    TMP DP  RH WIND       PRES   REMARKS
ANTIGO         CLOUDY   -12 -16  80 W5        30.43S WCI -24
SHAWANO        PTCLDY    -3 -12  67 W5        30.54R WCI -14
OCONTO         CLEAR     -6 -13  71 W7        30.53R WCI -20
STURGEON BAY   CLEAR     -4 -11  71 W13       30.50R WCI -23
GREEN BAY      CLEAR     -4 -12  68 NW12      30.54R WCI -22
MANITOWOC      NOT AVBL
APPLETON       NOT AVBL
CLINTONVILLE   CLOUDY    -4 -13  65 NW8       30.53S WCI -19
OSHKOSH        CLOUDY    -5 -15  62 W9        30.54R WCI -22
$$

WIZ032>034-041-042-053>061-131500-
SOUTHWEST WISCONSIN

CITY           SKY/WX    TMP DP  RH WIND       PRES   REMARKS
LA CROSSE      CLOUDY    -5 -16  59 N3        30.65R
SPARTA         CLOUDY   -17 -22  76 CALM      30.62S
VIROQUA        CLOUDY    -7 -18  61 CALM      30.54S
BOSCOBEL       CLOUDY    -8 -13  78 SW3       30.64R
PRAIRIE DU CHI CLOUDY    -6 -14  66 CALM      30.64S
PLATTEVILLE    CLOUDY    -3 -12  66 W3        30.59R
$$

WIZ056-057-062-063-064-067-068-131500-
SOUTH CENTRAL WISCONSIN

CITY           SKY/WX    TMP DP  RH WIND       PRES   REMARKS
REEDSBURG      PTCLDY    -6 -16  63 W3        30.58S
BARABOO/DELLS  PTCLDY    -5 -17  57 NW8       30.57R WCI -20
LONE ROCK      NOT AVBL
MINERAL POINT  PTCLDY    -2 -15  55 NW3       30.56R
MADISON        CLOUDY    -2 -15  54 N10       30.57R WCI -19
MIDDLETON      CLOUDY    -2 -13  57 NW5       30.58R WCI -12
WATERTOWN      CLEAR     -2 -12  62 NW6       30.56R WCI -14
MONROE         CLEAR      0 -11  60 N6        30.55R WCI -12
JANESVILLE     CLEAR      3 -11  51 NW8       30.58  WCI -10
$$

WIZ051-052-058>065-066-070>072-131500-
SOUTHEAST WISCONSIN

CITY           SKY/WX    TMP DP  RH WIND       PRES   REMARKS
MILWAUKEE      MOSUNNY    1 -12  54 NW13      30.55R WCI -17
WAUKESHA       SUNNY     -2 -15  55 NW15      30.55R WCI -22
MILWAUKEE/TIMM NOT AVBL
RACINE         SUNNY      1 -12  54 NW14      30.57R WCI -17
BURLINGTON     SUNNY     -2 -13  59 NW9       30.56R WCI -17
KENOSHA        SUNNY      1 -11  57 NW10      30.56R WCI -15
FOND DU LAC    CLOUDY    -3 -14  59 NW13      30.54R WCI -22
SHEBOYGAN      SUNNY     -2 -12  62 NW13      30.52S WCI -20
WEST BEND      SUNNY     -2 -13  60 NW8       30.52S WCI -17
JUNEAU         CLOUDY    -5 -15  63 NW7       30.56R WCI -19
$$

LSZ147-162-131500-
LAKE SUPERIOR

STATION/POSITION TIME  TEMP    WIND        PRES    WAVE
                       AIR SEA DIR/SP/G            HT/PER
                 (UTC) (F)     (DEG/KT/KT) (MB)    (FT/S)
DEVILS ISLAND    1300    0     310/ 12/ 15 1037.2S
SAXON HARBOR     1340   -2                 1034.9R
$$

LMZ867-665-643>646-131500-
LAKE MICHIGAN

STATION/POSITION TIME  TEMP    WIND        PRES    WAVE
                       AIR SEA DIR/SP/G            HT/PER
                 (UTC) (F)     (DEG/KT/KT) (MB)    (FT/S)
CHAMBERS ISLAND  1300   -1     270/  6/ 12 1031.5R
ALGOMA LAKESHORE 1311          330/  8/ 11   N/A
KEWAUNEE LAKESHO 1300   -3     300/  9/ 13 1031.9R
SHEBOYGAN LAKESH 1300   -1     290/ 15/ 18 1035.6R
PORT WASHINGTON  1300   -1     300/  9/ 13 1034.9R
MILWAUKEE LAKESH 1310    1     290/ 12/ 15   N/A
KENOSHA   LAKESH 1300    1     300/ 13/ 18 1034.2R
$$

TC  - TEMPERATURE IN CELSIUS
VSB - VISIBILITY IN STATUTE MILES
WCI - WIND CHILL INDEX
HX  - HEAT INDEX




USA.gov is the U.S. government's official web portal to all federal, state and local government web resources and services.